Location: Newark
(25.0000°N, 73.5000°E)
Time: 23:01:08
(UTC+00:00)

ISS - Pass Details

Date: 26 June 2021
Orbit: 419 x 421 km, 51.6° (Epoch: 30 July)

Event Time Altitude Azimuth Distance (km) Brightness Sun altitude
Exits shadow 21:37:08 15° 54° (NE) 1,229 -0.6 -29.8°
Drops below altitude 10° 21:37:48 10° 51° (NE) 1,493 -0.1 -29.7°
Sets 21:39:56 0° 47° (NE) 2,358 1.3 -29.4°
